| Date | Time | Temp. (oF) | Dew Point (oF) | Rel. Hum. (%) | Press. (in.) | Wind Dir. | Wind Speed (mph) | Hourly Rainfall (in.) |
|
|---|---|---|---|---|---|---|---|---|---|
| 1 | 12/27 | 00:00 | 37 | 36 | 100 | 29.41 | ENE | 10 | 0.00 |
| 2 | 12/26 | 23:00 | 37 | 36 | 100 | 29.45 | ENE | 18 | 0.00 |
| 3 | 12/26 | 22:00 | 37 | 36 | 100 | 29.47 | ENE | 34 | 0.00 |
| 4 | 12/26 | 21:00 | 37 | 36 | 100 | 29.50 | E | 10 | 0.00 |
| 5 | 12/26 | 20:00 | 36 | 36 | 100 | 29.54 | E | 15 | 0.00 |
| 6 | 12/26 | 19:00 | 35 | 35 | 100 | 29.58 | ESE | 15 | 0.03 |
| 7 | 12/26 | 18:00 | 33 | 32 | 100 | 29.62 | E | 15 | 0.23 |
| 8 | 12/26 | 17:00 | 33 | 32 | 100 | 29.70 | E | 7 | 0.09 |
| 9 | 12/26 | 16:00 | 31 | 31 | 100 | 29.75 | ENE | 7 | 0.04 |
| 10 | 12/26 | 15:00 | 30 | 30 | 100 | 29.83 | NE | 9 | 0.05 |
| 11 | 12/26 | 14:00 | 29 | 28 | 100 | 29.88 | E | 16 | 0.07 |
| 12 | 12/26 | 13:00 | 28 | 27 | 100 | 29.99 | E | 6 | 0.05 |
| 13 | 12/26 | 12:00 | 28 | 27 | 100 | 30.05 | ESE | 11 | 0.02 |
| 14 | 12/26 | 11:00 | 30 | 28 | 93 | 30.13 | ESE | 7 | 0.00 |
| 15 | 12/26 | 10:00 | 29 | 26 | 92 | 30.14 | ENE | 7 | 0.00 |
| 16 | 12/26 | 09:00 | 29 | 26 | 92 | 30.18 | ESE | 12 | 0.00 |
| 17 | 12/26 | 08:00 | 29 | 26 | 92 | 30.22 | E | 6 | 0.00 |
| 18 | 12/26 | 07:00 | 29 | 26 | 90 | 30.24 | NE | 7 | 0.00 |
| 19 | 12/26 | 06:00 | 28 | 25 | 89 | 30.24 | E | 7 | 0.00 |
| 20 | 12/26 | 05:00 | 29 | 26 | 89 | 30.23 | ESE | 8 | 0.00 |
| 21 | 12/26 | 04:00 | 29 | 25 | 86 | 30.27 | ENE | 5 | 0.00 |
| 22 | 12/26 | 03:00 | 30 | 26 | 86 | 30.28 | E | 4 | 0.00 |
| 23 | 12/26 | 02:00 | 30 | 25 | 84 | 30.31 | NE | 4 | 0.00 |
| 24 | 12/26 | 01:00 | 31 | 26 | 84 | 30.29 | E | 6 | 0.00 |